Flag for Germany Weather past 2 weeks in Ibbenbüren, North Rhine-Westphalia, Germany

Now
34 °F

Passing clouds.


Feels Like: 30 °F
Forecast: 24 / 34 °F
Wind: 5 mph from Southwest

Location: Muenster / Osnabrueck

Current Time: Feb 2, 2015 at 2:24:01 AM

Latest Report: Feb 2, 2015 at 1:50 AM


Visibility: 4 mi

Pressure: 29.39 "Hg

Humidity: 100%

Dew point: 34 °F

Location of IbbenbürenLocation

Historic Weather in Ibbenbüren — Graph

°F

Ibbenbüren temperature yesterday

Maximum temperature yesterday: 36 °F (at 9:50 AM)
Minimum temperature yesterday: 32 °F (at 1:20 AM)
Average temperature yesterday: 34 °F

Past Weeks' High & Low Weather Summary

 TemperatureHumidityPressure
High45 °F (Jan 28, 2:20 PM)100% (Jan 18, 9:50 AM)30.36 "Hg (Jan 18, 9:50 AM)
Low23 °F (Jan 21, 1:50 AM)65% (Jan 21, 1:50 PM)28.65 "Hg (Jan 30, 2:50 AM)
Average34 °F92%29.75 "Hg
* Reported Jan 18 12:20 AM — Feb 2 12:50 AM, Ibbenbüren, Weather by CustomWeather, © 2014

Note: Actual official high and low records may vary slightly from our data, if they occured in-between our weather recording intervals... More about our weather records

Advertising

Ibbenbüren weather history for previous 24 hours

 ConditionsComfort  
Time TempWeatherWind HumidityBarometerVisibility
12:50 AM
Feb 2
34 °FPassing clouds.7 mph100%29.39 "Hg5 mi
12:20 AM34 °FPartly cloudy.7 mph100%29.39 "Hg6 mi
11:50 PM
Feb 1
34 °FPassing clouds.9 mph100%29.39 "Hg6 mi
11:20 PM34 °FPassing clouds.6 mph100%29.39 "Hg6 mi
10:50 PM34 °FPassing clouds.8 mph100%29.36 "Hg6 mi
10:20 PM34 °FPassing clouds.6 mph100%29.36 "Hg5 mi
9:50 PM34 °FPassing clouds.8 mph100%29.36 "Hg5 mi
9:20 PM34 °FPartly cloudy.7 mph100%29.36 "Hg5 mi
8:50 PM34 °FPartly cloudy.6 mph100%29.36 "Hg5 mi
8:20 PM34 °FPassing clouds.8 mph100%29.36 "Hg5 mi
7:50 PM34 °FPassing clouds.7 mph100%29.33 "Hg5 mi
7:20 PM36 °FPassing clouds.7 mph93%29.33 "Hg5 mi
6:50 PM36 °FFog.6 mph100%29.33 "Hg3 mi
6:20 PM36 °FFog.5 mph100%29.30 "Hg3 mi
5:50 PM36 °FFog.6 mph100%29.30 "Hg3 mi
5:20 PM36 °FFog.6 mph100%29.27 "Hg3 mi
4:50 PM36 °FLight rain. Fog.6 mph100%29.27 "Hg3 mi
4:20 PM36 °FLight rain. Fog.3 mph100%29.27 "Hg3 mi
3:50 PM36 °FPartly sunny.5 mph100%29.24 "Hg4 mi
3:20 PM36 °FLight rain. Fog.3 mph100%29.24 "Hg2 mi
2:50 PM36 °FLight rain. Fog.3 mph100%29.24 "Hg2 mi
2:20 PM36 °FFog.5 mph93%29.24 "Hg3 mi
1:50 PM36 °FFog.6 mph93%29.21 "Hg3 mi
1:20 PM36 °FFog.6 mph93%29.21 "Hg3 mi
12:50 PM36 °FFog.5 mph100%29.21 "Hg2 mi
12:20 PM34 °FLight rain. Fog.3 mph100%29.21 "Hg1 mi
11:50 AM36 °FFog.6 mph93%29.21 "Hg3 mi
11:20 AM36 °FFog.6 mph93%29.21 "Hg3 mi
10:50 AM36 °FFog.6 mph87%29.18 "Hg3 mi
10:20 AM36 °FFog.6 mph87%29.18 "Hg3 mi
9:50 AM36 °FFog.7 mph87%29.18 "Hg3 mi
9:20 AM34 °FFog.6 mph93%29.18 "Hg2 mi
8:50 AM34 °FFog.5 mph93%29.15 "Hg3 mi
8:20 AM34 °FFog.5 mph93%29.15 "Hg3 mi
7:50 AM34 °FPassing clouds.5 mph93%29.15 "Hg4 mi
7:20 AM34 °FPassing clouds.8 mph93%29.15 "Hg4 mi
6:50 AM34 °FPassing clouds.5 mph93%29.15 "Hg4 mi
6:20 AM34 °FPassing clouds.6 mph93%29.12 "Hg5 mi
5:50 AM34 °FPassing clouds.7 mph93%29.12 "Hg5 mi
5:20 AM34 °FPassing clouds.5 mph93%29.12 "Hg5 mi
4:50 AM34 °FPassing clouds.5 mph93%29.12 "Hg5 mi
4:20 AM34 °FPassing clouds.8 mph93%29.12 "Hg5 mi
3:50 AM34 °FPassing clouds.7 mph93%29.12 "Hg5 mi
3:20 AM34 °FPassing clouds.6 mph93%29.12 "Hg5 mi
2:50 AM34 °FPassing clouds.5 mph93%29.12 "HgN/A
2:20 AM34 °FPassing clouds.5 mph93%29.09 "HgN/A
Weather by CustomWeather, © 2014

See weather overviewHow to use our weather pages